Location: Unspecified
(0.0000°N, 0.0000°E)
Time: 21:39:50
(UTC+00:00)

Vanguard 1 - Visible Passes

Search period start: 25 March 2017 00:00
Search period end: 04 April 2017 00:00
Orbit: 654 x 3830 km, 34.2° (Epoch: 22 March)

Date Brightness Start Highest point End Pass type
(mag) Time Alt. Az. Time Alt. Az. Time Alt. Az.
25 Mar 13.4 01:58:03 26° SSE 01:58:03 26° SSE 02:09:24 10° ESE visible
25 Mar 11.9 04:10:53 16° SW 04:25:00 59° SSE 04:33:59 10° ENE visible
25 Mar 12.8 18:31:49 10° WNW 18:43:17 51° SSW 19:03:08 10° SE visible
25 Mar 13.7 20:58:48 10° WSW 21:12:54 25° SSW 21:25:42 16° SSE visible
25 Mar 14.1 23:32:47 10° SW 00:06:10 - ESE 23:38:23 16° SSW visible
26 Mar 13.1 02:18:59 32° SSE 02:20:32 32° SSE 02:32:20 10° E visible
26 Mar 11.6 04:31:48 14° SW 04:46:37 78° SE 04:55:20 10° ENE visible
26 Mar 13.1 18:53:49 10° W 19:05:33 41° SSW 19:24:39 10° SE visible
26 Mar 13.8 21:22:44 10° SW 21:36:36 22° S 21:45:15 18° SSE visible
26 Mar 14.0 23:55:51 10° SW 00:27:04 - ESE 23:57:57 12° SSW visible
27 Mar 12.8 02:39:53 38° S 02:43:06 40° SSE 02:54:47 10° E visible
27 Mar 11.4 04:52:42 12° SW 05:07:58 79° NW 05:16:22 10° NE visible
27 Mar 13.3 19:16:16 10° W 19:28:08 33° SSW 19:46:11 10° SE visible
27 Mar 13.9 21:46:49 10° SW 22:00:38 20° S 22:04:44 19° S visible
28 Mar 13.8 00:47:55 14° ESE 00:47:55 14° ESE 00:49:49 10° ESE visible
28 Mar 12.4 03:00:43 44° S 03:05:23 51° SSE 03:16:48 10° ENE visible
28 Mar 11.5 05:13:59 10° WSW 05:29:06 57° NW 05:37:09 10° NE visible
28 Mar 13.5 19:39:12 10° WSW 19:51:03 27° SSW 20:07:53 10° SSE visible
28 Mar 13.9 22:10:39 10° SW 22:24:08 20° S 22:24:08 20° S visible
29 Mar 13.6 01:08:41 20° ESE 01:08:41 20° ESE 01:13:19 10° ESE visible
29 Mar 12.1 03:21:30 47° SSW 03:27:21 65° SSE 03:38:27 10° ENE visible
29 Mar 11.8 05:36:47 10° WSW 05:50:05 40° NW 05:57:39 10° NNE visible
29 Mar 13.7 20:02:35 10° WSW 20:14:19 22° SSW 20:29:55 10° SSE visible
29 Mar 13.9 22:33:53 10° SW 22:43:30 19° S 22:43:30 19° S visible
30 Mar 13.3 01:29:23 28° ESE 01:29:23 28° ESE 01:36:18 10° E visible
30 Mar 11.8 03:42:10 46° SW 03:49:02 83° SE 03:59:45 10° ENE visible
30 Mar 13.0 17:58:18 10° W 18:07:48 35° SSW 18:23:36 10° SE visible
30 Mar 13.8 20:26:17 10° SW 20:37:57 20° S 20:50:09 12° SSE visible
30 Mar 14.0 22:56:26 10° SSW 23:02:49 18° SSW 23:02:49 18° SSW visible
31 Mar 12.9 01:49:59 38° ESE 01:49:59 38° ESE 01:58:47 10° E visible
31 Mar 11.7 04:02:46 41° WSW 04:10:28 77° NW 04:20:48 10° NE visible
31 Mar 13.3 18:20:48 10° WSW 18:30:18 27° SSW 18:45:02 10° SSE visible
31 Mar 13.8 20:49:59 10° SW 21:01:53 19° S 21:09:27 16° SSE visible
31 Mar 14.1 23:18:28 10° SSW 23:57:43 - E 23:22:08 15° SSW visible
01 Apr 12.6 02:10:29 51° ESE 02:10:29 51° ESE 02:20:48 10° ENE visible
01 Apr 11.8 04:23:16 33° WSW 04:31:41 59° NW 04:41:36 10° NE visible
01 Apr 13.5 18:43:45 10° WSW 18:53:08 22° SSW 19:06:38 10° SSE visible
01 Apr 13.8 21:13:16 10° SSW 21:25:58 19° S 21:28:45 18° SSE visible
01 Apr 14.1 23:40:06 10° SSW 00:18:07 - E 23:41:25 12° SSW visible
02 Apr 12.3 02:30:53 67° ESE 02:30:53 67° ESE 02:42:28 10° ENE visible
02 Apr 12.1 04:43:39 25° W 04:52:47 43° NW 05:02:11 10° NNE visible
02 Apr 13.6 19:07:09 10° SW 19:16:17 19° S 19:28:38 10° SSE visible
02 Apr 13.8 21:35:55 10° SSW 21:48:02 20° S 21:48:02 20° S visible
03 Apr 13.8 00:38:26 13° E 00:38:26 13° E 00:39:36 10° E visible
03 Apr 12.1 02:51:11 85° E 02:51:11 85° E 03:03:48 10° NE visible
03 Apr 12.4 05:03:57 17° W 05:13:55 31° NW 05:22:30 10° NNE visible
03 Apr 13.7 19:30:43 10° SW 19:39:48 17° S 19:51:24 10° SSE visible
03 Apr 13.8 21:57:58 10° SSW 22:07:19 21° S 22:07:19 21° S visible
